GW3913 Weather Reports


time (UTC)temp
C
wind
direction
speed
KPH
gust
KPH
rain 1hr
cm
rain 24hr
cm
rain mn
cm
humidity
%
barometer
mb
20260508064833 12 57 0.0 3.2 0.00 0.00 0.00 24 1022.5
20260508064330 12 80 0.0 3.2 0.00 0.00 0.00 24 1022.3
20260508063828 12 97 6.4 9.7 0.00 0.00 0.00 23 1022.3
20260508063325 12 60 0.0 4.8 0.00 0.00 0.00 23 1022.3
20260508062822 12 89 6.4 12.9 0.00 0.00 0.00 22 1022.3
20260508062320 13 80 0.0 3.2 0.00 0.00 0.00 23 1022.5
20260508061816 13 91 3.2 4.8 0.00 0.00 0.00 22 1022.2
20260508061313 13 99 4.8 9.7 0.00 0.00 0.00 22 1022.3
20260508060810 13 89 4.8 4.8 0.00 0.00 0.00 22 1022.1
20260508060308 13 93 6.4 9.7 0.00 0.00 0.00 22 1022.1
20260508055802 13 88 3.2 8.0 0.00 0.00 0.00 22 1022.1
20260508055300 13 95 3.2 8.0 0.00 0.00 0.00 22 1022.3
20260508054756 13 90 6.4 8.0 0.00 0.00 0.00 22 1022.2
20260508054254 13 86 1.6 8.0 0.00 0.00 0.00 22 1022.1
20260508053751 13 96 4.8 8.0 0.00 0.00 0.00 22 1022.3
20260508053248 13 84 1.6 8.0 0.00 0.00 0.00 22 1022.2
20260508052745 13 96 3.2 4.8 0.00 0.00 0.00 22 1022.2
20260508052243 13 94 3.2 8.0 0.00 0.00 0.00 22 1022.2
20260508051738 13 91 1.6 4.8 0.00 0.00 0.00 23 1022.2
20260508051234 13 74 4.8 4.8 0.00 0.00 0.00 23 1022.3
20260508050731 13 97 3.2 4.8 0.00 0.00 0.00 24 1022.3
20260508050228 13 71 0.0 3.2 0.00 0.00 0.00 23 1022.5
20260508045723 13 67 3.2 4.8 0.00 0.00 0.00 24 1022.3
20260508045222 13 94 4.8 8.0 0.00 0.00 0.00 23 1022.2
20260508044719 13 72 1.6 4.8 0.00 0.00 0.00 23 1022.1
20260508044215 13 95 4.8 4.8 0.00 0.00 0.00 23 1022.1
20260508043711 14 56 0.0 3.2 0.00 0.00 0.00 24 1022.3
20260508043209 14 86 3.2 4.8 0.00 0.00 0.00 22 1022.1
20260508042705 14 88 3.2 4.8 0.00 0.00 0.00 22 1022.1
20260508042203 14 67 0.0 8.0 0.00 0.00 0.00 23 1022.1
20260508041659 14 82 0.0 4.8 0.00 0.00 0.00 24 1022.5
20260508041156 14 87 3.2 4.8 0.00 0.00 0.00 24 1022.1
20260508040653 15 82 3.2 4.8 0.00 0.00 0.00 24 1022.3
20260508040150 15 100 4.8 4.8 0.00 0.00 0.00 23 1022.3
20260508035647 15 89 3.2 4.8 0.00 0.00 0.00 23 1022.2
20260508035145 15 105 3.2 4.8 0.00 0.00 0.00 23 1022.1
20260508034641 15 91 3.2 8.0 0.00 0.00 0.00 22 1022.1
20260508034138 16 103 3.2 4.8 0.00 0.00 0.00 22 1021.9
20260508033636 15 72 3.2 4.8 0.00 0.00 0.00 22 1021.7
20260508033134 16 71 0.0 4.8 0.00 0.00 0.00 23 1021.7
20260508032630 16 85 1.6 3.2 0.00 0.00 0.00 22 1021.5
20260508032128 16 74 0.0 8.0 0.00 0.00 0.00 22 1021.4
20260508031625 16 81 0.0 3.2 0.00 0.00 0.00 22 1021.2
20260508031120 16 79 0.0 4.8 0.00 0.00 0.00 22 1021.4
20260508030617 17 68 3.2 3.2 0.00 0.00 0.00 21 1021.2
20260508030115 17 67 0.0 3.2 0.00 0.00 0.00 21 1021.4
20260508025611 17 68 1.6 3.2 0.00 0.00 0.00 21 1021.2
20260508025108 17 57 0.0 3.2 0.00 0.00 0.00 20 1021.2
20260508024604 17 19 0.0 8.0 0.00 0.00 0.00 21 1021.0
20260508024101 17 81 0.0 3.2 0.00 0.00 0.00 22 1020.9
20260508023558 18 74 0.0 0.0 0.00 0.00 0.00 19 1021.0
20260508023055 18 99 0.0 0.0 0.00 0.00 0.00 18 1020.9
20260508022551 18 133 0.0 3.2 0.00 0.00 0.00 18 1020.7
20260508022048 18 95 0.0 0.0 0.00 0.00 0.00 18 1020.8
20260508021544 19 95 0.0 0.0 0.00 0.00 0.00 17 1020.6
20260508021040 20 98 0.0 0.0 0.00 0.00 0.00 17 1020.6
20260508020537 20 107 0.0 0.0 0.00 0.00 0.00 16 1020.6
20260508020035 21 110 0.0 3.2 0.00 0.00 0.00 16 1020.5
20260508015532 21 226 1.6 8.0 0.00 0.00 0.00 15 1020.5
20260508015029 21 195 1.6 4.8 0.00 0.00 0.00 15 1020.3
20260508014526 22 133 6.4 9.7 0.00 0.00 0.00 14 1020.3
20260508014022 22 174 0.0 3.2 0.00 0.00 0.00 13 1020.3
20260508013518 22 130 0.0 4.8 0.00 0.00 0.00 14 1020.3
20260508013016 22 128 1.6 3.2 0.00 0.00 0.00 13 1020.0
20260508012513 22 173 4.8 9.7 0.00 0.00 0.00 13 1020.0
20260508012010 23 122 1.6 3.2 0.00 0.00 0.00 13 1020.2
20260508011508 23 149 1.6 8.0 0.00 0.00 0.00 13 1020.0
20260508011005 23 152 8.0 9.7 0.00 0.00 0.00 12 1019.9
20260508010502 23 174 1.6 4.8 0.00 0.00 0.00 12 1020.1
20260508005959 23 164 1.6 4.8 0.00 0.00 0.00 12 1020.0
20260508005456 23 108 0.0 3.2 0.00 0.00 0.00 12 1020.0
20260508004953 23 149 3.2 4.8 0.00 0.00 0.00 12 1020.1
20260508004448 23 55 0.0 4.8 0.00 0.00 0.00 12 1019.7
20260508003945 23 212 3.2 9.7 0.00 0.00 0.00 12 1019.9
20260508003442 24 129 4.8 8.0 0.00 0.00 0.00 11 1020.1
20260508002939 24 241 6.4 8.0 0.00 0.00 0.00 11 1020.0
20260508002436 23 196 6.4 8.0 0.00 0.00 0.00 11 1020.1
20260508001932 23 163 4.8 12.9 0.00 0.00 0.00 11 1019.9
20260508001428 23 188 0.0 4.8 0.00 0.00 0.00 11 1020.0
20260508000925 24 171 4.8 4.8 0.00 0.00 0.00 11 1020.1
20260508000421 23 180 0.0 4.8 0.00 0.00 0.00 12 1020.2
20260507235918 23 236 6.4 16.1 0.00 0.00 0.00 11 1020.3
20260507235415 24 252 6.4 16.1 0.00 0.00 0.00 11 1020.0
20260507234912 24 161 4.8 16.1 0.00 0.00 0.00 12 1020.1
20260507234409 24 152 0.0 4.8 0.00 0.00 0.00 12 1020.1
20260507233905 25 171 1.6 8.0 0.00 0.00 0.00 11 1020.5
20260507233402 25 19 0.0 4.8 0.00 0.00 0.00 10 1020.5
20260507232901 24 296 4.8 8.0 0.00 0.00 0.00 10 1020.5
20260507232357 24 327 6.4 9.7 0.00 0.00 0.00 11 1020.3
20260507231854 23 233 1.6 4.8 0.00 0.00 0.00 11 1020.5
20260507231350 24 125 1.6 4.8 0.00 0.00 0.00 11 1020.5
20260507230847 24 328 6.4 12.9 0.00 0.00 0.00 11 1020.7
20260507230344 23 201 3.2 4.8 0.00 0.00 0.00 11 1020.6
20260507225844 24 200 8.0 12.9 0.00 0.00 0.00 11 1020.7
20260507225340 23 40 0.0 4.8 0.00 0.00 0.00 12 1020.8
20260507224837 24 198 0.0 4.8 0.00 0.00 0.00 11 1020.9
20260507224333 23 120 9.7 12.9 0.00 0.00 0.00 12 1020.8
20260507223829 24 172 4.8 12.9 0.00 0.00 0.00 12 1020.7
20260507223326 24 200 4.8 17.7 0.00 0.00 0.00 12 1020.9
20260507222823 23 228 1.6 4.8 0.00 0.00 0.00 12 1020.9
20260507222320 23 213 12.9 17.7 0.00 0.00 0.00 12 1021.2
20260507221817 25 252 8.0 12.9 0.00 0.00 0.00 12 1021.0
20260507221313 25 332 3.2 8.0 0.00 0.00 0.00 13 1021.3
20260507220809 23 16 0.0 8.0 0.00 0.00 0.00 13 1021.2
20260507220308 23 20 0.0 9.7 0.00 0.00 0.00 13 1021.5
20260507215803 22 342 1.6 8.0 0.00 0.00 0.00 14 1021.4
20260507215301 23 346 6.4 9.7 0.00 0.00 0.00 13 1021.5
20260507214758 23 245 4.8 9.7 0.00 0.00 0.00 12 1021.7
20260507214255 23 181 9.7 12.9 0.00 0.00 0.00 14 1021.7
20260507213750 22 156 0.0 8.0 0.00 0.00 0.00 13 1021.7
20260507213248 22 272 9.7 9.7 0.00 0.00 0.00 13 1022.0
20260507212744 23 209 8.0 17.7 0.00 0.00 0.00 13 1022.1
20260507212240 22 341 0.0 9.7 0.00 0.00 0.00 14 1022.2
20260507211737 22 221 8.0 16.1 0.00 0.00 0.00 13 1022.2
20260507211233 22 18 8.0 9.7 0.00 0.00 0.00 14 1022.6
20260507210730 23 248 6.4 12.9 0.00 0.00 0.00 13 1022.7
20260507210227 22 300 1.6 8.0 0.00 0.00 0.00 15 1022.7
20260507205724 21 245 4.8 8.0 0.00 0.00 0.00 14 1022.8
20260507205221 21 332 0.0 9.7 0.00 0.00 0.00 16 1023.0
20260507204717 21 84 0.0 4.8 0.00 0.00 0.00 16 1023.0
20260507204215 21 321 4.8 9.7 0.00 0.00 0.00 16 1023.3
20260507203712 21 321 4.8 12.9 0.00 0.00 0.00 15 1023.2
20260507203210 21 314 9.7 16.1 0.00 0.00 0.00 16 1023.3
20260507202705 21 269 1.6 9.7 0.00 0.00 0.00 17 1023.4
20260507202201 21 203 1.6 8.0 0.00 0.00 0.00 17 1023.5
20260507201656 20 67 1.6 4.8 0.00 0.00 0.00 17 1023.5
20260507201154 21 333 3.2 8.0 0.00 0.00 0.00 17 1023.4
20260507200650 21 328 8.0 12.9 0.00 0.00 0.00 16 1023.8
20260507200146 21 233 6.4 20.9 0.00 0.00 0.00 17 1023.6
20260507195643 20 67 4.8 8.0 0.00 0.00 0.00 17 1023.8
20260507195140 20 341 4.8 9.7 0.00 0.00 0.00 18 1023.8
20260507194637 20 277 6.4 16.1 0.00 0.00 0.00 18 1023.9
20260507194132 20 185 4.8 4.8 0.00 0.00 0.00 16 1023.9
20260507193629 20 9 3.2 9.7 0.00 0.00 0.00 18 1024.2
20260507193127 20 104 1.6 12.9 0.00 0.00 0.00 18 1024.1
20260507192622 20 350 3.2 8.0 0.00 0.00 0.00 18 1024.2
20260507192120 20 4 6.4 9.7 0.00 0.00 0.00 17 1024.3
20260507191615 20 299 0.0 3.2 0.00 0.00 0.00 20 1024.3
20260507191112 18 41 0.0 3.2 0.00 0.00 0.00 21 1024.5
20260507190609 18 285 1.6 4.8 0.00 0.00 0.00 21 1024.7
20260507190108 18 2 1.6 8.0 0.00 0.00 0.00 21 1024.6
20260507185606 18 280 4.8 8.0 0.00 0.00 0.00 22 1024.9
20260507185102 17 261 6.4 17.7 0.00 0.00 0.00 22 1024.9
20260507184601 17 284 6.4 16.1 0.00 0.00 0.00 23 1025.1
20260507184058 18 169 8.0 9.7 0.00 0.00 0.00 22 1024.9
20260507183554 17 252 3.2 12.9 0.00 0.00 0.00 23 1025.2
20260507183051 16 18 0.0 8.0 0.00 0.00 0.00 25 1025.3
20260507182547 17 97 1.6 12.9 0.00 0.00 0.00 24 1025.2
20260507182043 17 320 4.8 12.9 0.00 0.00 0.00 23 1025.6
20260507181541 18 290 8.0 9.7 0.00 0.00 0.00 22 1025.6
20260507181037 17 295 8.0 8.0 0.00 0.00 0.00 23 1025.6
20260507180533 16 344 0.0 4.8 0.00 0.00 0.00 24 1025.5
20260507180030 17 257 8.0 12.9 0.00 0.00 0.00 23 1025.5
20260507175526 16 274 4.8 12.9 0.00 0.00 0.00 25 1025.9
20260507175024 16 307 4.8 9.7 0.00 0.00 0.00 25 1026.0
20260507174521 16 182 8.0 16.1 0.00 0.00 0.00 24 1025.8
20260507174019 16 14 9.7 12.9 0.00 0.00 0.00 24 1025.9
20260507173515 16 6 6.4 8.0 0.00 0.00 0.00 25 1025.9
20260507173013 16 311 9.7 16.1 0.00 0.00 0.00 25 1025.9
20260507172509 16 8 9.7 9.7 0.00 0.00 0.00 25 1026.1
20260507172005 16 323 3.2 8.0 0.00 0.00 0.00 26 1026.1
20260507171501 16 149 1.6 9.7 0.00 0.00 0.00 26 1026.3
20260507170959 16 351 6.4 9.7 0.00 0.00 0.00 29 1026.3
20260507170455 15 326 6.4 12.9 0.00 0.00 0.00 32 1026.3
20260507165951 15 295 8.0 16.1 0.00 0.00 0.00 32 1026.5
20260507165447 15 197 0.0 4.8 0.00 0.00 0.00 31 1026.5
20260507164943 14 22 3.2 4.8 0.00 0.00 0.00 34 1026.5
20260507164441 15 355 1.6 8.0 0.00 0.00 0.00 35 1026.6
20260507163937 15 336 3.2 8.0 0.00 0.00 0.00 35 1026.7
20260507163435 13 5 3.2 4.8 0.00 0.00 0.00 37 1026.8
20260507162932 14 1 3.2 9.7 0.00 0.00 0.00 35 1026.8
20260507162427 14 222 4.8 8.0 0.00 0.00 0.00 33 1026.6
20260507161925 13 90 1.6 4.8 0.00 0.00 0.00 35 1026.7
20260507161420 12 36 1.6 8.0 0.00 0.00 0.00 38 1026.7
20260507160917 13 253 6.4 9.7 0.00 0.00 0.00 37 1026.8
20260507160413 13 339 3.2 4.8 0.00 0.00 0.00 36 1026.9
20260507155909 12 1 4.8 8.0 0.00 0.00 0.00 35 1027.1
20260507155405 12 30 1.6 8.0 0.00 0.00 0.00 39 1027.1
20260507154903 12 282 3.2 8.0 0.00 0.00 0.00 36 1026.9
20260507154359 12 16 1.6 4.8 0.00 0.00 0.00 39 1027.1
20260507153857 12 313 4.8 8.0 0.00 0.00 0.00 41 1026.9
20260507153353 11 314 6.4 8.0 0.00 0.00 0.00 43 1026.9
20260507152849 11 194 3.2 8.0 0.00 0.00 0.00 43 1027.2
20260507152346 11 21 3.2 8.0 0.00 0.00 0.00 43 1027.1
20260507151842 11 28 4.8 8.0 0.00 0.00 0.00 44 1027.2
20260507151338 10 30 1.6 3.2 0.00 0.00 0.00 46 1027.2
20260507150836 10 28 1.6 4.8 0.00 0.00 0.00 46 1027.2
20260507150332 10 1 0.0 3.2 0.00 0.00 0.00 48 1027.4
20260507145828 9 47 1.6 8.0 0.00 0.00 0.00 52 1027.2
20260507145320 8 1 6.4 8.0 0.00 0.00 0.00 53 1027.5
20260507144817 8 350 3.2 8.0 0.00 0.00 0.00 55 1027.3
20260507144314 8 28 3.2 9.7 0.00 0.00 0.00 56 1027.4
20260507143810 8 54 1.6 4.8 0.00 0.00 0.00 58 1027.4
20260507143307 8 28 4.8 8.0 0.00 0.00 0.00 59 1027.4
20260507142803 7 13 3.2 12.9 0.00 0.00 0.00 60 1027.4
20260507142259 7 10 3.2 8.0 0.00 0.00 0.00 61 1027.5
20260507141756 7 19 3.2 4.8 0.00 0.00 0.00 62 1027.4
20260507141254 7 13 3.2 8.0 0.00 0.00 0.00 63 1027.4
20260507140750 6 349 6.4 9.7 0.00 0.00 0.00 64 1027.4
20260507140248 6 340 6.4 8.0 0.00 0.00 0.00 65 1027.5
20260507135744 6 19 1.6 8.0 0.00 0.00 0.00 67 1027.4
20260507135242 5 31 1.6 9.7 0.00 0.00 0.00 69 1027.5
20260507134738 5 11 3.2 4.8 0.00 0.00 0.00 69 1027.4
20260507134235 5 16 0.0 3.2 0.00 0.00 0.00 69 1027.3
20260507133730 4 22 0.0 3.2 0.00 0.00 0.00 70 1027.4
20260507133227 3 30 4.8 4.8 0.00 0.00 0.00 70 1027.2
20260507132725 3 16 6.4 8.0 0.00 0.00 0.00 70 1027.3
20260507132221 3 25 3.2 8.0 0.00 0.00 0.00 71 1026.9
20260507131717 3 18 0.0 3.2 0.00 0.00 0.00 74 1027.1
20260507131215 3 9 3.2 4.8 0.00 0.00 0.00 75 1027.1
20260507130711 3 44 0.0 3.2 0.00 0.00 0.00 75 1027.1
20260507130209 2 15 1.6 4.8 0.00 0.00 0.00 75 1026.9
20260507125708 2 6 1.6 8.0 0.00 0.00 0.00 76 1027.1
20260507125205 2 12 0.0 3.2 0.00 0.00 0.00 74 1027.2
20260507124701 2 14 4.8 8.0 0.00 0.00 0.00 71 1026.8
20260507124159 2 7 3.2 4.8 0.00 0.00 0.00 70 1027.1
20260507123657 2 27 3.2 4.8 0.00 0.00 0.00 66 1026.9
20260507123154 2 12 1.6 4.8 0.00 0.00 0.00 64 1026.7
20260507122649 1 10 1.6 3.2 0.00 0.00 0.00 66 1026.8
20260507122146 1 73 0.0 0.0 0.00 0.00 0.00 65 1026.7
20260507121642 2 81 1.6 3.2 0.00 0.00 0.00 66 1026.8
20260507121137 2 25 0.0 0.0 0.00 0.00 0.00 68 1026.8
20260507120633 2 21 0.0 0.0 0.00 0.00 0.00 66 1026.6
20260507120130 2 22 0.0 3.2 0.00 0.00 0.00 64 1026.6
20260507115627 2 11 3.2 3.2 0.00 0.00 0.00 61 1026.6
20260507115122 2 12 1.6 3.2 0.00 0.00 0.00 59 1026.8
20260507114618 2 42 0.0 0.0 0.00 0.00 0.00 57 1026.9
20260507114116 2 40 0.0 0.0 0.00 0.00 0.00 56 1026.6
20260507113613 2 31 0.0 3.2 0.00 0.00 0.00 55 1026.7
20260507113111 2 25 1.6 3.2 0.00 0.00 0.00 55 1026.9
20260507112609 2 29 1.6 3.2 0.00 0.00 0.00 53 1026.8
20260507112105 2 78 0.0 0.0 0.00 0.00 0.00 52 1026.7
20260507111602 3 81 0.0 0.0 0.00 0.00 0.00 50 1026.8
20260507111059 3 83 3.2 4.8 0.00 0.00 0.00 50 1026.7
20260507110555 3 86 3.2 4.8 0.00 0.00 0.00 56 1026.8
20260507110052 3 60 0.0 0.0 0.00 0.00 0.00 58 1026.7
20260507105548 3 74 0.0 0.0 0.00 0.00 0.00 56 1026.7
20260507105044 3 74 0.0 0.0 0.00 0.00 0.00 55 1026.7
20260507104542 3 77 0.0 0.0 0.00 0.00 0.00 55 1026.7
20260507104038 3 81 0.0 3.2 0.00 0.00 0.00 51 1026.7
20260507103534 3 65 0.0 3.2 0.00 0.00 0.00 49 1026.9
20260507103031 3 79 0.0 0.0 0.00 0.00 0.00 48 1026.7
20260507102528 3 45 0.0 0.0 0.00 0.00 0.00 49 1026.7
20260507102024 3 63 0.0 0.0 0.00 0.00 0.00 50 1026.8
20260507101520 3 56 0.0 0.0 0.00 0.00 0.00 50 1026.7
20260507101016 3 58 0.0 3.2 0.00 0.00 0.00 49 1026.8
20260507100514 3 71 0.0 0.0 0.00 0.00 0.00 49 1026.7
20260507100012 3 91 0.0 0.0 0.00 0.00 0.00 47 1026.6
20260507095509 4 93 0.0 0.0 0.00 0.00 0.00 48 1026.7
20260507095005 4 102 0.0 3.2 0.00 0.00 0.00 45 1026.6
20260507094502 5 76 0.0 0.0 0.00 0.00 0.00 44 1026.6
20260507093959 5 84 0.0 0.0 0.00 0.00 0.00 44 1026.5
20260507093456 5 84 0.0 0.0 0.00 0.00 0.00 44 1026.6
20260507092954 5 95 3.2 3.2 0.00 0.00 0.00 44 1026.6
20260507092450 5 97 0.0 0.0 0.00 0.00 0.00 44 1026.5
20260507091947 5 79 0.0 0.0 0.00 0.00 0.00 43 1026.5
20260507091443 6 77 0.0 0.0 0.00 0.00 0.00 41 1026.7
20260507090940 6 50 0.0 0.0 0.00 0.00 0.00 43 1026.5
20260507090435 6 44 0.0 3.2 0.00 0.00 0.00 42 1026.7
20260507085932 6 22 1.6 4.8 0.00 0.00 0.00 40 1026.6
20260507085429 6 79 0.0 3.2 0.00 0.00 0.00 41 1026.5
20260507084926 6 78 1.6 3.2 0.00 0.00 0.00 40 1026.5
20260507084423 6 22 0.0 3.2 0.00 0.00 0.00 39 1026.3
20260507083920 6 33 0.0 3.2 0.00 0.00 0.00 39 1026.3
20260507083417 6 80 0.0 3.2 0.00 0.00 0.00 38 1026.3
20260507082913 7 88 0.0 3.2 0.00 0.00 0.00 37 1026.2
20260507082409 7 72 0.0 0.0 0.00 0.00 0.00 36 1026.2
20260507081906 7 46 0.0 0.0 0.00 0.00 0.00 35 1026.2
20260507081402 7 61 0.0 3.2 0.00 0.00 0.00 35 1026.3
20260507080859 7 35 0.0 4.8 0.00 0.00 0.00 35 1026.5
20260507080355 7 53 0.0 3.2 0.00 0.00 0.00 36 1026.2
20260507075851 7 87 0.0 4.8 0.00 0.00 0.00 36 1026.2
20260507075347 7 87 0.0 3.2 0.00 0.00 0.00 36 1026.3
20260507074843 7 87 3.2 4.8 0.00 0.00 0.00 36 1026.1
20260507074341 7 85 0.0 3.2 0.00 0.00 0.00 37 1026.1
20260507073838 7 82 1.6 3.2 0.00 0.00 0.00 37 1026.0
20260507073334 8 65 0.0 0.0 0.00 0.00 0.00 35 1026.2
20260507072832 8 61 0.0 3.2 0.00 0.00 0.00 34 1026.0
20260507072329 8 35 0.0 0.0 0.00 0.00 0.00 32 1026.1
20260507071826 8 17 1.6 4.8 0.00 0.00 0.00 31 1026.0
20260507071324 8 43 3.2 4.8 0.00 0.00 0.00 32 1026.0
20260507070820 8 54 0.0 3.2 0.00 0.00 0.00 33 1025.9
20260507070317 8 71 0.0 3.2 0.00 0.00 0.00 33 1026.0
20260507065814 8 5 6.4 8.0 0.00 0.00 0.00 32 1026.0
20260507065310 8 31 1.6 3.2 0.00 0.00 0.00 33 1025.9